Location: Dąbrowa Miętka
(51.3714°N, 18.6370°E)
Time: 03:58:21
(UTC+01:00)

ISS - Pass Details

Date: 02 February 2019
Orbit: 403 x 411 km, 51.6° (Epoch: 20 February)

Event Time Altitude Azimuth Distance (km) Brightness Sun altitude
Rises 18:04:39 0° 276° (W) 2,337 1.6 -13.9°
Reaches altitude 10° 18:06:44 10° 277° (W) 1,477 0.3 -14.2°
Maximum altitude 18:10:04 88° 12° (NNE) 416 -3.9 -14.7°
Enters shadow 18:11:26 33° 96° (E) 723 -3.1 -14.9°
